• In Hungary
  • List of Countries
  • For 7 days
  • Water Temperature
  • Satellite Maps
  • Weather Map
  • News
  • Weather Widgets
  • user-avatar
    Login

    Hourly Weather Semennikovo

    Today, 18 August, Saturday

    Time Temperature Precipitation Wind Pressure Humidity
    00:00 +13°C° 0 mm 1 mps 750 mmHg 82%
    01:00 +12°C° 0 mm 1 mps 750 mmHg 83%
    02:00 +12°C° 0 mm 1 mps 750 mmHg 88%
    03:00 +12°C° 0 mm 1 mps 750 mmHg 88%
    04:00 +12°C° 0 mm 1 mps 750 mmHg 88%
    05:00 +12°C° 0 mm 1 mps 750 mmHg 88%
    06:00 +14°C° 0 mm 1 mps 750 mmHg 81%
    07:00 +16°C° 0 mm 1 mps 750 mmHg 74%
    08:00 +18°C° 0 mm 2 mps 750 mmHg 67%
    09:00 +20°C° 0 mm 2 mps 750 mmHg 62%
    10:00 +21°C° 0 mm 2 mps 750 mmHg 57%
    11:00 +24°C° 0 mm 2 mps 750 mmHg 51%
    12:00 +24°C° 0 mm 2 mps 749 mmHg 50%
    13:00 +25°C° 0 mm 2 mps 749 mmHg 49%
    14:00 +25°C° 0 mm 2 mps 749 mmHg 48%
    15:00 +25°C° 0 mm 2 mps 748 mmHg 53%
    16:00 +24°C° 0 mm 2 mps 748 mmHg 57%
    17:00 +24°C° 0 mm 2 mps 748 mmHg 62%
    18:00 +21°C° 0 mm 2 mps 748 mmHg 68%
    19:00 +19°C° 0 mm 2 mps 748 mmHg 74%
    20:00 +17°C° 0 mm 2 mps 748 mmHg 80%
    21:00 +16°C° 0 mm 2 mps 748 mmHg 82%
    22:00 +15°C° 0 mm 2 mps 748 mmHg 83%
    23:00 +15°C° 0 mm 2 mps 747 mmHg 85%

    Tomorrow, 19 August, Sunday

    Time Temperature Precipitation Wind Pressure Humidity
    00:00 +15°C° 0 mm 2 mps 747 mmHg 86%
    01:00 +14°C° 0 mm 2 mps 747 mmHg 87%
    02:00 +14°C° 0 mm 2 mps 747 mmHg 88%
    03:00 +14°C° 0 mm 2 mps 747 mmHg 89%
    04:00 +14°C° 0 mm 2 mps 747 mmHg 90%
    05:00 +14°C° 0 mm 2 mps 746 mmHg 90%
    06:00 +16°C° 0 mm 3 mps 746 mmHg 84%
    07:00 +18°C° 0 mm 3 mps 746 mmHg 78%
    08:00 +20°C° 0 mm 3 mps 746 mmHg 71%
    09:00 +21°C° 0 mm 4 mps 746 mmHg 68%
    10:00 +22°C° 0 mm 4 mps 745 mmHg 65%
    11:00 +25°C° 0 mm 4 mps 745 mmHg 62%
    12:00 +25°C° 0.5 mm 4 mps 745 mmHg 66%
    13:00 +25°C° 0.5 mm 4 mps 744 mmHg 70%
    14:00 +25°C° 0.5 mm 4 mps 744 mmHg 73%
    15:00 +23°C° 0.5 mm 4 mps 743 mmHg 77%
    16:00 +24°C° 0.5 mm 3 mps 743 mmHg 81%
    17:00 +22°C° 0.5 mm 3 mps 743 mmHg 85%
    18:00 +21°C° 0.4 mm 3 mps 743 mmHg 89%
    19:00 +19°C° 0.4 mm 2 mps 743 mmHg 93%
    20:00 +18°C° 0.4 mm 2 mps 743 mmHg 96%
    21:00 +18°C° 0 mm 2 mps 743 mmHg 96%
    22:00 +17°C° 0 mm 2 mps 743 mmHg 96%
    23:00 +17°C° 0 mm 2 mps 743 mmHg 96%

    Day after tomorrow, 20 August, Monday

    Time Temperature Precipitation Wind Pressure Humidity
    00:00 +16°C° 0 mm 2 mps 743 mmHg 96%
    01:00 +16°C° 0 mm 1 mps 743 mmHg 95%
    02:00 +15°C° 0 mm 1 mps 743 mmHg 94%
    03:00 +15°C° 0 mm 1 mps 743 mmHg 95%
    04:00 +15°C° 0 mm 1 mps 743 mmHg 95%
    05:00 +15°C° 0 mm 1 mps 743 mmHg 95%
    06:00 +16°C° 0 mm 1 mps 743 mmHg 94%
    07:00 +17°C° 0 mm 2 mps 743 mmHg 92%
    08:00 +17°C° 0 mm 2 mps 743 mmHg 90%
    09:00 +18°C° 0.1 mm 2 mps 743 mmHg 89%
    10:00 +18°C° 0.1 mm 2 mps 743 mmHg 89%
    11:00 +19°C° 0.1 mm 2 mps 743 mmHg 88%
    12:00 +19°C° 0.4 mm 2 mps 742 mmHg 85%
    13:00 +20°C° 0.4 mm 2 mps 742 mmHg 82%
    14:00 +21°C° 0.4 mm 2 mps 742 mmHg 80%
    15:00 +21°C° 0.6 mm 2 mps 742 mmHg 83%
    16:00 +20°C° 0.6 mm 2 mps 741 mmHg 86%
    17:00 +20°C° 0.6 mm 2 mps 741 mmHg 89%
    18:00 +19°C° 0.2 mm 2 mps 741 mmHg 91%
    19:00 +18°C° 0.2 mm 2 mps 741 mmHg 94%
    20:00 +18°C° 0.2 mm 1 mps 741 mmHg 97%
    21:00 +17°C° 0 mm 2 mps 741 mmHg 97%
    22:00 +16°C° 0 mm 2 mps 741 mmHg 97%
    23:00 +16°C° 0 mm 2 mps 740 mmHg 97%

    21 August, Tuesday

    Time Temperature Precipitation Wind Pressure Humidity
    00:00 +16°C° 0 mm 2 mps 740 mmHg 97%
    01:00 +16°C° 0 mm 2 mps 740 mmHg 97%
    02:00 +16°C° 0 mm 2 mps 739 mmHg 97%
    03:00 +16°C° 0 mm 3 mps 739 mmHg 96%
    04:00 +16°C° 0 mm 3 mps 738 mmHg 96%
    05:00 +16°C° 0 mm 3 mps 738 mmHg 95%
    06:00 +17°C° 0 mm 4 mps 737 mmHg 91%
    07:00 +19°C° 0 mm 4 mps 737 mmHg 87%
    08:00 +20°C° 0 mm 5 mps 737 mmHg 83%
    09:00 +20°C° 0.6 mm 5 mps 736 mmHg 82%
    10:00 +21°C° 0.6 mm 5 mps 735 mmHg 82%
    11:00 +21°C° 0.6 mm 6 mps 735 mmHg 82%
    12:00 +20°C° 2.2 mm 5 mps 735 mmHg 85%
    13:00 +19°C° 2.2 mm 5 mps 734 mmHg 88%
    14:00 +17°C° 2.2 mm 5 mps 734 mmHg 92%
    15:00 +17°C° 1.3 mm 4 mps 734 mmHg 92%
    16:00 +17°C° 1.3 mm 4 mps 735 mmHg 93%
    17:00 +16°C° 1.3 mm 3 mps 735 mmHg 93%
    18:00 +14°C° 0 mm 3 mps 735 mmHg 92%
    19:00 +13°C° 0 mm 3 mps 736 mmHg 91%
    20:00 +12°C° 0 mm 4 mps 736 mmHg 91%
    21:00 +12°C° 0 mm 4 mps 737 mmHg 90%
    22:00 +11°C° 0 mm 3 mps 737 mmHg 89%
    23:00 +10°C° 0 mm 3 mps 738 mmHg 89%

    22 August, Wednesday

    Time Temperature Precipitation Wind Pressure Humidity
    00:00 +10°C° 0 mm 4 mps 738 mmHg 89%
    01:00 +10°C° 0 mm 4 mps 738 mmHg 89%
    02:00 +10°C° 0 mm 4 mps 739 mmHg 89%
    03:00 +10°C° 0 mm 4 mps 739 mmHg 89%
    04:00 +10°C° 0 mm 4 mps 739 mmHg 89%
    05:00 +10°C° 0 mm 4 mps 740 mmHg 89%
    06:00 +10°C° 0 mm 5 mps 740 mmHg 83%
    07:00 +12°C° 0 mm 5 mps 741 mmHg 77%
    08:00 +13°C° 0 mm 6 mps 741 mmHg 70%
    09:00 +14°C° 0 mm 5 mps 742 mmHg 65%
    10:00 +15°C° 0 mm 5 mps 742 mmHg 60%
    11:00 +16°C° 0 mm 5 mps 743 mmHg 54%
    12:00 +17°C° 0 mm 5 mps 743 mmHg 52%
    13:00 +17°C° 0 mm 5 mps 744 mmHg 50%
    14:00 +17°C° 0 mm 5 mps 744 mmHg 48%
    15:00 +17°C° 0 mm 5 mps 744 mmHg 51%
    16:00 +17°C° 0 mm 4 mps 744 mmHg 53%
    17:00 +17°C° 0 mm 3 mps 745 mmHg 56%
    18:00 +14°C° 0 mm 3 mps 745 mmHg 61%
    19:00 +12°C° 0 mm 3 mps 745 mmHg 66%
    20:00 +12°C° 0 mm 2 mps 746 mmHg 72%
    21:00 +10°C° 0 mm 2 mps 746 mmHg 75%
    22:00 +9°C° 0 mm 2 mps 746 mmHg 78%
    23:00 +9°C° 0 mm 2 mps 746 mmHg 81%

    23 August, Thursday

    Time Temperature Precipitation Wind Pressure Humidity
    00:00 +9°C° 0 mm 2 mps 746 mmHg 83%
    01:00 +9°C° 0 mm 2 mps 746 mmHg 85%
    02:00 +9°C° 0 mm 2 mps 746 mmHg 86%
    03:00 +9°C° 0 mm 2 mps 746 mmHg 84%
    04:00 +10°C° 0 mm 3 mps 746 mmHg 81%
    05:00 +10°C° 0 mm 3 mps 746 mmHg 79%
    06:00 +12°C° 0 mm 4 mps 745 mmHg 73%
    07:00 +14°C° 0 mm 5 mps 745 mmHg 67%
    08:00 +16°C° 0 mm 6 mps 745 mmHg 61%
    09:00 +17°C° 0 mm 6 mps 744 mmHg 59%
    10:00 +19°C° 0 mm 6 mps 744 mmHg 57%
    11:00 +20°C° 0 mm 6 mps 744 mmHg 56%
    12:00 +19°C° 0.2 mm 5 mps 743 mmHg 60%
    13:00 +19°C° 0.2 mm 5 mps 743 mmHg 65%
    14:00 +19°C° 0.2 mm 4 mps 743 mmHg 70%
    15:00 +18°C° 0.2 mm 4 mps 743 mmHg 75%
    16:00 +17°C° 0.2 mm 3 mps 743 mmHg 80%
    17:00 +17°C° 0.2 mm 3 mps 742 mmHg 85%
    18:00 +16°C° 0.3 mm 3 mps 742 mmHg 88%
    19:00 +16°C° 0.3 mm 3 mps 742 mmHg 90%
    20:00 +16°C° 0.3 mm 3 mps 742 mmHg 93%
    21:00 +16°C° 0.1 mm 3 mps 743 mmHg 94%
    22:00 +16°C° 0.1 mm 3 mps 743 mmHg 95%
    23:00 +16°C° 0.1 mm 3 mps 743 mmHg 96%
    Show more